Flag for Philippines Weather past 2 weeks in Tarlac City, Philippines

Now
79 °F

Partly sunny.


Feels Like: 81 °F
Forecast: 75 / 85 °F
Wind: 9 mph from Northeast

Location: Clarkfield Pampanga International Airport

Current Time: Dec 23, 2014 at 11:15:20 AM

Latest Report: Dec 23, 2014 at 10:00 AM


Visibility: N/A

Pressure: 29.98 "Hg

Humidity: 70%

Dew point: 68 °F

Location of Tarlac CityLocation

Historic Weather in Tarlac City — Graph

°F

Tarlac City temperature yesterday

Maximum temperature yesterday: 84 °F (at 1:00 PM)
Minimum temperature yesterday: 73 °F (at 5:00 AM)
Average temperature yesterday: 78 °F

Past Weeks' High & Low Weather Summary

 TemperatureHumidityPressure
High90 °F (Dec 12, 3:00 PM)100% (Dec 8, 11:00 PM)30.09 "Hg (Dec 8, 11:00 PM)
Low70 °F (Dec 19, 6:00 AM)51% (Dec 18, 12:00 PM)29.71 "Hg (Dec 8, 2:00 PM)
Average79 °F79%29.93 "Hg
* Reported Dec 8 10:00 AM — Dec 23 10:00 AM, Tarlac City, Weather by CustomWeather, © 2014

Note: Actual official high and low records may vary slightly from our data, if they occured in-between our weather recording intervals... More about our weather records

Advertising

Tarlac City weather history for previous 24 hours

 ConditionsComfort  
Time TempWeatherWind HumidityBarometerVisibility
10:00 AM
Dec 23
79 °FBroken clouds.9 mph70%29.98 "HgN/A
9:00 AM79 °FPartly sunny.8 mph70%29.98 "HgN/A
8:00 AM75 °FPartly sunny.7 mph78%29.98 "HgN/A
7:00 AM72 °FPartly sunny.9 mph88%29.95 "HgN/A
6:00 AM72 °FPassing clouds.8 mph88%29.95 "HgN/A
5:00 AM73 °FPassing clouds.9 mph83%29.92 "HgN/A
4:00 AM73 °FPassing clouds.10 mph83%29.92 "HgN/A
3:00 AM73 °FPassing clouds.9 mph83%29.92 "HgN/A
2:00 AM73 °FPassing clouds.9 mph83%29.92 "HgN/A
1:00 AM73 °FPassing clouds.9 mph83%29.95 "HgN/A
12:00 AM75 °FPassing clouds.9 mph83%29.95 "HgN/A
11:00 PM
Dec 22
75 °FPassing clouds.9 mph78%29.95 "HgN/A
10:00 PM75 °FPassing clouds.8 mph78%29.95 "HgN/A
9:00 PM75 °FPassing clouds.8 mph78%29.95 "HgN/A
8:00 PM75 °FPassing clouds.6 mph69%29.95 "HgN/A
7:00 PM79 °FPartly cloudy.6 mph65%29.92 "HgN/A
6:00 PM79 °FPartly cloudy.12 mph65%29.89 "HgN/A
5:00 PM81 °FBroken clouds.8 mph62%29.89 "HgN/A
4:00 PM81 °FBroken clouds.12 mph62%29.86 "HgN/A
3:00 PM82 °FBroken clouds.10 mph58%29.86 "HgN/A
2:00 PM84 °FBroken clouds.13 mph51%29.86 "HgN/A
1:00 PM84 °FBroken clouds.13 mph51%29.89 "HgN/A
12:00 PM82 °FPartly sunny.10 mph55%29.92 "HgN/A
11:00 AM82 °FBroken clouds.8 mph55%29.95 "HgN/A
Weather by CustomWeather, © 2014

See weather overviewHow to use our weather pages